Time,TemperatureF,DewpointF,PressureIn,WindDirection,WindDirectionDegrees,WindSpeedMPH,WindSpeedGustMPH,Humidity,HourlyPrecipIn,Conditions,Clouds,dailyrainin,SoftwareType,DateUTC
2012-09-13 00:03:00,49.8,45.1,30.20,SW,225,0.0,0.0,84,0.00,,,0.00,WUHU21623XXSP,2012-09-13 07:03:00,
2012-09-13 00:08:00,49.8,45.1,30.20,SW,225,0.0,0.0,84,0.00,,,0.00,WUHU21623XXSP,2012-09-13 07:08:00,
2012-09-13 00:13:00,49.6,45.2,30.20,SW,225,0.0,0.0,85,0.00,,,0.00,WUHU21623XXSP,2012-09-13 07:13:00,
2012-09-13 00:18:00,49.6,45.2,30.20,SW,225,0.0,0.0,85,0.00,,,0.00,WUHU21623XXSP,2012-09-13 07:18:00,
2012-09-13 00:23:00,49.6,45.2,30.20,SW,225,0.0,0.0,85,0.00,,,0.00,WUHU21623XXSP,2012-09-13 07:23:00,
2012-09-13 00:28:00,49.6,45.2,30.20,SW,225,0.0,0.0,85,0.00,,,0.00,WUHU21623XXSP,2012-09-13 07:28:00,
2012-09-13 00:33:00,49.6,45.2,30.20,SW,225,0.0,0.0,85,0.00,,,0.00,WUHU21623XXSP,2012-09-13 07:33:00,
2012-09-13 00:38:00,49.3,44.9,30.20,SW,225,0.0,0.0,85,0.00,,,0.00,WUHU21623XXSP,2012-09-13 07:38:00,
2012-09-13 00:43:00,49.3,44.9,30.20,SW,225,0.0,0.0,85,0.00,,,0.00,WUHU21623XXSP,2012-09-13 07:43:00,
2012-09-13 00:48:00,49.3,45.2,30.20,SW,225,0.0,0.0,86,0.00,,,0.00,WUHU21623XXSP,2012-09-13 07:48:00,
2012-09-13 00:53:00,49.1,45.0,30.20,SW,225,0.0,0.0,86,0.00,,,0.00,WUHU21623XXSP,2012-09-13 07:53:00,
2012-09-13 00:58:00,48.9,44.9,30.20,SW,225,0.0,0.0,86,0.00,,,0.00,WUHU21623XXSP,2012-09-13 07:58:00,
2012-09-13 01:03:00,48.9,44.9,30.20,SW,225,0.0,0.0,86,0.00,,,0.00,WUHU21623XXSP,2012-09-13 08:03:00,
2012-09-13 01:08:00,48.9,44.6,30.20,SW,225,0.0,0.0,85,0.00,,,0.00,WUHU21623XXSP,2012-09-13 08:08:00,
2012-09-13 01:13:00,48.7,44.4,30.20,SW,225,0.0,0.0,85,0.00,,,0.00,WUHU21623XXSP,2012-09-13 08:13:00,
2012-09-13 01:18:00,48.6,44.2,30.20,SW,225,0.0,0.0,85,0.00,,,0.00,WUHU21623XXSP,2012-09-13 08:18:00,
2012-09-13 01:23:00,48.6,44.2,30.20,SW,225,0.0,0.0,85,0.00,,,0.00,WUHU21623XXSP,2012-09-13 08:23:00,
2012-09-13 01:28:00,48.4,44.0,30.20,SW,225,0.0,0.0,85,0.00,,,0.00,WUHU21623XXSP,2012-09-13 08:28:00,
2012-09-13 01:33:00,48.2,43.9,30.20,SW,225,0.0,0.0,85,0.00,,,0.00,WUHU21623XXSP,2012-09-13 08:33:00,
2012-09-13 01:38:00,48.0,43.7,30.20,SW,225,0.0,0.0,85,0.00,,,0.00,WUHU21623XXSP,2012-09-13 08:38:00,
2012-09-13 01:43:00,48.0,43.7,30.19,SW,225,0.0,0.0,85,0.00,,,0.00,WUHU21623XXSP,2012-09-13 08:43:00,
2012-09-13 01:48:00,47.8,43.8,30.19,SW,225,0.0,0.0,86,0.00,,,0.00,WUHU21623XXSP,2012-09-13 08:48:00,
2012-09-13 01:53:00,47.8,43.8,30.19,SW,225,0.0,0.0,86,0.00,,,0.00,WUHU21623XXSP,2012-09-13 08:53:00,
2012-09-13 01:58:00,47.7,43.7,30.19,SW,225,0.0,0.0,86,0.00,,,0.00,WUHU21623XXSP,2012-09-13 08:58:00,
2012-09-13 02:03:00,47.5,43.7,30.19,SW,225,0.0,0.0,86,0.00,,,0.00,WUHU21623XXSP,2012-09-13 09:03:00,
2012-09-13 02:08:00,47.5,43.5,30.19,SW,225,0.0,0.0,86,0.00,,,0.00,WUHU21623XXSP,2012-09-13 09:08:00,
2012-09-13 02:13:00,47.3,43.3,30.19,SW,225,0.0,0.0,86,0.00,,,0.00,WUHU21623XXSP,2012-09-13 09:13:00,
2012-09-13 02:18:00,47.3,43.3,30.19,SW,225,0.0,0.0,86,0.00,,,0.00,WUHU21623XXSP,2012-09-13 09:18:00,
2012-09-13 02:23:00,47.1,43.3,30.19,SW,225,0.0,0.0,86,0.00,,,0.00,WUHU21623XXSP,2012-09-13 09:23:00,
2012-09-13 02:28:00,47.1,43.2,30.19,SW,225,0.0,0.0,86,0.00,,,0.00,WUHU21623XXSP,2012-09-13 09:28:00,
2012-09-13 02:33:00,47.1,43.2,30.18,SW,225,0.0,0.0,86,0.00,,,0.00,WUHU21623XXSP,2012-09-13 09:33:00,
2012-09-13 02:38:00,46.9,43.0,30.18,SW,225,0.0,0.0,86,0.00,,,0.00,WUHU21623XXSP,2012-09-13 09:38:00,
2012-09-13 02:43:00,46.9,43.0,30.18,SW,225,0.0,0.0,86,0.00,,,0.00,WUHU21623XXSP,2012-09-13 09:43:00,
2012-09-13 02:48:00,46.8,42.8,30.18,SW,225,0.0,0.0,86,0.00,,,0.00,WUHU21623XXSP,2012-09-13 09:48:00,
2012-09-13 02:53:00,46.6,42.6,30.18,SW,225,0.0,0.0,86,0.00,,,0.00,WUHU21623XXSP,2012-09-13 09:53:00,
2012-09-13 02:58:00,46.6,42.6,30.18,SW,225,0.0,0.0,86,0.00,,,0.00,WUHU21623XXSP,2012-09-13 09:58:00,
2012-09-13 03:03:00,46.4,42.6,30.18,SW,225,0.0,0.0,86,0.00,,,0.00,WUHU21623XXSP,2012-09-13 10:03:00,
2012-09-13 03:08:00,46.2,42.5,30.18,SW,225,0.0,0.0,86,0.00,,,0.00,WUHU21623XXSP,2012-09-13 10:08:00,
2012-09-13 03:13:00,46.2,42.3,30.18,SW,225,0.0,0.0,86,0.00,,,0.00,WUHU21623XXSP,2012-09-13 10:13:00,
2012-09-13 03:18:00,46.2,42.3,30.19,SW,225,0.0,0.0,86,0.00,,,0.00,WUHU21623XXSP,2012-09-13 10:18:00,
2012-09-13 03:23:00,46.2,42.6,30.19,SW,225,0.0,0.0,87,0.00,,,0.00,WUHU21623XXSP,2012-09-13 10:23:00,
2012-09-13 03:28:00,46.0,42.4,30.19,SW,225,0.0,0.0,87,0.00,,,0.00,WUHU21623XXSP,2012-09-13 10:28:00,
2012-09-13 03:33:00,46.0,42.4,30.19,SW,225,0.0,0.0,87,0.00,,,0.00,WUHU21623XXSP,2012-09-13 10:33:00,
2012-09-13 03:38:00,45.7,41.8,30.19,SW,225,0.0,0.0,86,0.00,,,0.00,WUHU21623XXSP,2012-09-13 10:38:00,
2012-09-13 03:43:00,45.7,41.8,30.18,SW,225,0.0,0.0,86,0.00,,,0.00,WUHU21623XXSP,2012-09-13 10:43:00,
2012-09-13 03:48:00,45.5,41.9,30.18,SW,225,0.0,0.0,87,0.00,,,0.00,WUHU21623XXSP,2012-09-13 10:48:00,
2012-09-13 03:53:00,45.3,41.4,30.18,SW,225,0.0,0.0,86,0.00,,,0.00,WUHU21623XXSP,2012-09-13 10:53:00,
2012-09-13 03:58:00,45.1,41.5,30.18,SW,225,0.0,0.0,87,0.00,,,0.00,WUHU21623XXSP,2012-09-13 10:58:00,
2012-09-13 04:03:00,45.1,41.5,30.18,SW,225,0.0,0.0,87,0.00,,,0.00,WUHU21623XXSP,2012-09-13 11:03:00,
2012-09-13 04:08:00,45.1,41.5,30.18,SW,225,0.0,0.0,87,0.00,,,0.00,WUHU21623XXSP,2012-09-13 11:08:00,
2012-09-13 04:13:00,45.1,41.5,30.18,SW,225,0.0,0.0,87,0.00,,,0.00,WUHU21623XXSP,2012-09-13 11:13:00,
2012-09-13 04:18:00,45.1,41.5,30.17,SW,225,0.0,0.0,87,0.00,,,0.00,WUHU21623XXSP,2012-09-13 11:18:00,
2012-09-13 04:23:00,45.1,41.5,30.17,SW,225,0.0,0.0,87,0.00,,,0.00,WUHU21623XXSP,2012-09-13 11:23:00,
2012-09-13 04:28:00,45.1,41.8,30.17,SW,225,0.0,0.0,88,0.00,,,0.00,WUHU21623XXSP,2012-09-13 11:28:00,
2012-09-13 04:33:00,45.0,41.3,30.18,SW,225,0.0,0.0,87,0.00,,,0.00,WUHU21623XXSP,2012-09-13 11:33:00,
2012-09-13 04:38:00,45.0,41.3,30.17,SW,225,0.0,0.0,87,0.00,,,0.00,WUHU21623XXSP,2012-09-13 11:38:00,
2012-09-13 04:43:00,44.8,41.2,30.17,SW,225,0.0,0.0,87,0.00,,,0.00,WUHU21623XXSP,2012-09-13 11:43:00,
2012-09-13 04:48:00,44.8,41.2,30.17,SW,225,0.0,0.0,87,0.00,,,0.00,WUHU21623XXSP,2012-09-13 11:48:00,
2012-09-13 04:53:00,44.6,41.3,30.17,SW,225,0.0,0.0,88,0.00,,,0.00,WUHU21623XXSP,2012-09-13 11:53:00,
2012-09-13 04:58:00,44.4,40.8,30.17,SW,225,0.0,0.0,87,0.00,,,0.00,WUHU21623XXSP,2012-09-13 11:58:00,
2012-09-13 05:03:00,44.4,40.8,30.17,SW,225,0.0,0.0,87,0.00,,,0.00,WUHU21623XXSP,2012-09-13 12:03:00,
2012-09-13 05:08:00,44.4,40.8,30.17,SW,225,0.0,0.0,87,0.00,,,0.00,WUHU21623XXSP,2012-09-13 12:08:00,
2012-09-13 05:13:00,44.2,40.6,30.17,SW,225,0.0,0.0,87,0.00,,,0.00,WUHU21623XXSP,2012-09-13 12:13:00,
2012-09-13 05:18:00,44.2,40.6,30.17,SW,225,0.0,0.0,87,0.00,,,0.00,WUHU21623XXSP,2012-09-13 12:18:00,
2012-09-13 05:23:00,44.2,40.9,30.16,SW,225,0.0,0.0,88,0.00,,,0.00,WUHU21623XXSP,2012-09-13 12:23:00,
2012-09-13 05:28:00,44.1,40.7,30.16,SW,225,0.0,0.0,88,0.00,,,0.00,WUHU21623XXSP,2012-09-13 12:28:00,
2012-09-13 05:33:00,44.1,40.7,30.16,SW,225,0.0,0.0,88,0.00,,,0.00,WUHU21623XXSP,2012-09-13 12:33:00,
2012-09-13 05:38:00,44.1,40.7,30.16,NW,315,0.0,0.0,88,0.00,,,0.00,WUHU21623XXSP,2012-09-13 12:38:00,
2012-09-13 05:43:00,43.9,40.6,30.17,NW,315,0.0,0.0,88,0.00,,,0.00,WUHU21623XXSP,2012-09-13 12:43:00,
2012-09-13 05:48:00,43.9,40.6,30.16,NW,315,0.0,0.0,88,0.00,,,0.00,WUHU21623XXSP,2012-09-13 12:48:00,
2012-09-13 05:53:00,43.9,40.6,30.17,NW,315,0.0,0.0,88,0.00,,,0.00,WUHU21623XXSP,2012-09-13 12:53:00,
2012-09-13 05:58:00,43.7,40.4,30.17,NW,315,0.0,0.0,88,0.00,,,0.00,WUHU21623XXSP,2012-09-13 12:58:00,
2012-09-13 06:03:00,43.7,40.4,30.16,NW,315,0.0,0.0,88,0.00,,,0.00,WUHU21623XXSP,2012-09-13 13:03:00,
2012-09-13 06:08:00,43.5,40.2,30.16,NW,315,0.0,0.0,88,0.00,,,0.00,WUHU21623XXSP,2012-09-13 13:08:00,
2012-09-13 06:13:00,43.5,40.2,30.16,NW,315,0.0,0.0,88,0.00,,,0.00,WUHU21623XXSP,2012-09-13 13:13:00,
2012-09-13 06:18:00,43.5,40.2,30.16,NW,315,0.0,0.0,88,0.00,,,0.00,WUHU21623XXSP,2012-09-13 13:18:00,
2012-09-13 06:23:00,43.5,40.2,30.16,NW,315,0.0,0.0,88,0.00,,,0.00,WUHU21623XXSP,2012-09-13 13:23:00,
2012-09-13 06:28:00,43.5,40.2,30.16,NW,315,0.0,0.0,88,0.00,,,0.00,WUHU21623XXSP,2012-09-13 13:28:00,
2012-09-13 06:33:00,43.5,40.2,30.17,NW,315,0.0,0.0,88,0.00,,,0.00,WUHU21623XXSP,2012-09-13 13:33:00,
2012-09-13 06:38:00,43.5,40.2,30.16,NW,315,0.0,0.0,88,0.00,,,0.00,WUHU21623XXSP,2012-09-13 13:38:00,
2012-09-13 06:43:00,43.5,40.2,30.17,NW,315,0.0,0.0,88,0.00,,,0.00,WUHU21623XXSP,2012-09-13 13:43:00,
2012-09-13 06:48:00,43.5,40.2,30.16,NW,315,0.0,0.0,89,0.00,,,0.00,WUHU21623XXSP,2012-09-13 13:48:00,
2012-09-13 06:53:00,43.5,40.5,30.16,NW,315,0.0,0.0,89,0.00,,,0.00,WUHU21623XXSP,2012-09-13 13:53:00,
2012-09-13 06:58:00,43.5,40.5,30.16,NW,315,0.0,0.0,89,0.00,,,0.00,WUHU21623XXSP,2012-09-13 13:58:00,
2012-09-13 07:03:00,43.5,40.5,30.16,NW,315,0.0,0.0,89,0.00,,,0.00,WUHU21623XXSP,2012-09-13 14:03:00,
2012-09-13 07:08:00,43.5,40.5,30.16,NW,315,0.0,0.0,89,0.00,,,0.00,WUHU21623XXSP,2012-09-13 14:08:00,
2012-09-13 07:13:00,43.5,40.5,30.17,NW,315,0.0,0.0,89,0.00,,,0.00,WUHU21623XXSP,2012-09-13 14:13:00,
2012-09-13 07:18:00,43.5,40.5,30.17,NW,315,0.0,0.0,89,0.00,,,0.00,WUHU21623XXSP,2012-09-13 14:18:00,
2012-09-13 07:23:00,43.7,40.7,30.17,NW,315,0.0,0.0,89,0.00,,,0.00,WUHU21623XXSP,2012-09-13 14:23:00,
2012-09-13 07:28:00,43.7,40.7,30.17,NW,315,0.0,0.0,89,0.00,,,0.00,WUHU21623XXSP,2012-09-13 14:28:00,
2012-09-13 07:33:00,43.7,40.7,30.17,NW,315,0.0,0.0,89,0.00,,,0.00,WUHU21623XXSP,2012-09-13 14:33:00,
2012-09-13 07:38:00,43.9,40.9,30.17,NW,315,0.0,0.0,89,0.00,,,0.00,WUHU21623XXSP,2012-09-13 14:38:00,
2012-09-13 07:43:00,43.9,40.9,30.17,NW,315,0.0,0.0,89,0.00,,,0.00,WUHU21623XXSP,2012-09-13 14:43:00,
2012-09-13 07:48:00,43.9,40.9,30.17,NW,315,0.0,0.0,89,0.00,,,0.00,WUHU21623XXSP,2012-09-13 14:48:00,
2012-09-13 07:53:00,44.2,41.2,30.17,NW,315,0.0,0.0,89,0.00,,,0.00,WUHU21623XXSP,2012-09-13 14:53:00,
2012-09-13 07:58:00,44.2,41.2,30.16,NW,315,0.0,0.0,89,0.00,,,0.00,WUHU21623XXSP,2012-09-13 14:58:00,
2012-09-13 08:03:00,44.4,41.4,30.17,NW,315,0.0,0.0,89,0.00,,,0.00,WUHU21623XXSP,2012-09-13 15:03:00,
2012-09-13 08:08:00,44.4,41.7,30.16,NW,315,0.0,0.0,90,0.00,,,0.00,WUHU21623XXSP,2012-09-13 15:08:00,
2012-09-13 08:13:00,44.8,41.9,30.17,NW,315,0.0,0.0,90,0.00,,,0.00,WUHU21623XXSP,2012-09-13 15:13:00,
2012-09-13 08:18:00,45.0,42.3,30.17,NW,315,0.0,0.0,90,0.00,,,0.00,WUHU21623XXSP,2012-09-13 15:18:00,
2012-09-13 08:23:00,45.1,42.4,30.16,NW,315,0.0,0.0,90,0.00,,,0.00,WUHU21623XXSP,2012-09-13 15:23:00,
2012-09-13 08:28:00,45.3,42.4,30.17,NW,315,0.0,0.0,90,0.00,,,0.00,WUHU21623XXSP,2012-09-13 15:28:00,
2012-09-13 08:33:00,45.5,42.6,30.17,NW,315,0.0,0.0,90,0.00,,,0.00,WUHU21623XXSP,2012-09-13 15:33:00,
2012-09-13 08:38:00,45.7,43.0,30.17,NW,315,0.0,0.0,90,0.00,,,0.00,WUHU21623XXSP,2012-09-13 15:38:00,
2012-09-13 08:43:00,46.0,43.0,30.17,NW,315,0.0,0.0,90,0.00,,,0.00,WUHU21623XXSP,2012-09-13 15:43:00,
2012-09-13 08:49:00,46.0,43.3,30.17,NW,315,0.0,0.0,90,0.00,,,0.00,WUHU21623XXSP,2012-09-13 15:49:00,
2012-09-13 08:54:00,46.4,43.7,30.16,NW,315,0.0,0.0,90,0.00,,,0.00,WUHU21623XXSP,2012-09-13 15:54:00,
2012-09-13 08:59:00,46.8,44.1,30.16,NW,315,0.0,0.0,90,0.00,,,0.00,WUHU21623XXSP,2012-09-13 15:59:00,
2012-09-13 09:04:00,47.1,44.7,30.16,NW,315,0.0,0.0,91,0.00,,,0.00,WUHU21623XXSP,2012-09-13 16:04:00,
2012-09-13 09:08:00,47.5,45.0,30.17,NW,315,0.0,0.0,91,0.00,,,0.00,WUHU21623XXSP,2012-09-13 16:08:00,
2012-09-13 09:13:00,48.0,45.4,30.16,NW,315,0.0,0.0,91,0.00,,,0.00,WUHU21623XXSP,2012-09-13 16:13:00,
2012-09-13 09:18:00,48.2,45.5,30.17,NW,315,0.0,0.0,90,0.00,,,0.00,WUHU21623XXSP,2012-09-13 16:18:00,
2012-09-13 09:23:00,48.7,46.3,30.16,NW,315,0.0,0.0,91,0.00,,,0.00,WUHU21623XXSP,2012-09-13 16:23:00,
2012-09-13 09:28:00,49.1,46.3,30.16,NW,315,0.0,0.0,90,0.00,,,0.00,WUHU21623XXSP,2012-09-13 16:28:00,
2012-09-13 09:33:00,49.6,46.8,30.16,NNW,337,0.0,0.0,90,0.00,,,0.00,WUHU21623XXSP,2012-09-13 16:33:00,
2012-09-13 09:39:00,50.2,47.3,30.16,NNW,337,0.0,0.0,90,0.00,,,0.00,WUHU21623XXSP,2012-09-13 16:39:00,
2012-09-13 09:43:00,50.4,47.5,30.16,NNW,337,0.0,0.0,90,0.00,,,0.00,WUHU21623XXSP,2012-09-13 16:43:00,
2012-09-13 09:48:00,50.5,47.4,30.16,NNW,337,0.0,0.0,89,0.00,,,0.00,WUHU21623XXSP,2012-09-13 16:48:00,
2012-09-13 09:53:00,50.9,47.7,30.16,NNW,337,0.0,0.0,89,0.00,,,0.00,WUHU21623XXSP,2012-09-13 16:53:00,
2012-09-13 09:59:00,51.6,48.3,30.15,NNW,337,0.0,0.0,89,0.00,,,0.00,WUHU21623XXSP,2012-09-13 16:59:00,
2012-09-13 10:04:00,52.0,48.8,30.15,NNW,337,0.0,0.0,89,0.00,,,0.00,WUHU21623XXSP,2012-09-13 17:04:00,
2012-09-13 10:09:00,52.5,49.0,30.16,NNW,337,0.0,0.0,88,0.00,,,0.00,WUHU21623XXSP,2012-09-13 17:09:00,
2012-09-13 10:14:00,53.1,49.6,30.15,NNW,337,0.0,0.0,88,0.00,,,0.00,WUHU21623XXSP,2012-09-13 17:14:00,
2012-09-13 10:19:00,53.4,49.6,30.16,NNW,337,0.0,0.0,87,0.00,,,0.00,WUHU21623XXSP,2012-09-13 17:19:00,
2012-09-13 10:24:00,54.3,50.2,30.15,NNW,337,0.0,0.0,86,0.00,,,0.00,WUHU21623XXSP,2012-09-13 17:24:00,
2012-09-13 10:29:00,55.2,50.7,30.15,NNW,337,0.0,0.0,85,0.00,,,0.00,WUHU21623XXSP,2012-09-13 17:29:00,
2012-09-13 10:34:00,55.8,50.9,30.15,NNW,337,0.0,0.0,84,0.00,,,0.00,WUHU21623XXSP,2012-09-13 17:34:00,
2012-09-13 10:39:00,57.0,51.9,30.15,NNW,337,0.0,0.0,83,0.00,,,0.00,WUHU21623XXSP,2012-09-13 17:39:00,
2012-09-13 10:44:00,57.7,52.6,30.15,NNW,337,0.0,0.0,83,0.00,,,0.00,WUHU21623XXSP,2012-09-13 17:44:00,
2012-09-13 10:49:00,58.3,52.2,30.15,NNW,337,0.0,0.0,80,0.00,,,0.00,WUHU21623XXSP,2012-09-13 17:49:00,
2012-09-13 10:54:00,59.2,52.3,30.15,North,0,0.0,0.0,78,0.00,,,0.00,WUHU21623XXSP,2012-09-13 17:54:00,
2012-09-13 10:59:00,59.7,52.9,30.15,SW,225,0.0,0.0,78,0.00,,,0.00,WUHU21623XXSP,2012-09-13 17:59:00,
2012-09-13 11:04:00,60.3,53.1,30.15,SE,135,0.0,0.0,78,0.00,,,0.00,WUHU21623XXSP,2012-09-13 18:04:00,
2012-09-13 11:09:00,61.3,54.8,30.14,SE,135,0.0,0.0,79,0.00,,,0.00,WUHU21623XXSP,2012-09-13 18:09:00,
2012-09-13 11:14:00,61.9,54.6,30.14,SE,135,0.0,0.0,77,0.00,,,0.00,WUHU21623XXSP,2012-09-13 18:14:00,
2012-09-13 11:19:00,62.4,55.1,30.14,SSE,157,0.0,0.0,77,0.00,,,0.00,WUHU21623XXSP,2012-09-13 18:19:00,
2012-09-13 11:24:00,63.3,55.2,30.14,NNE,22,0.0,0.0,75,0.00,,,0.00,WUHU21623XXSP,2012-09-13 18:24:00,
2012-09-13 11:29:00,64.0,55.2,30.14,WNW,292,0.0,0.0,73,0.00,,,0.00,WUHU21623XXSP,2012-09-13 18:29:00,
2012-09-13 11:34:00,64.6,55.4,30.13,SSW,202,0.0,0.0,72,0.00,,,0.00,WUHU21623XXSP,2012-09-13 18:34:00,
2012-09-13 11:39:00,65.1,55.1,30.13,ESE,112,0.0,0.0,70,0.00,,,0.00,WUHU21623XXSP,2012-09-13 18:39:00,
2012-09-13 11:44:00,65.7,55.6,30.13,South,180,0.0,0.0,70,0.00,,,0.00,WUHU21623XXSP,2012-09-13 18:44:00,
2012-09-13 11:49:00,66.4,55.9,30.13,NE,45,0.0,0.0,69,0.00,,,0.00,WUHU21623XXSP,2012-09-13 18:49:00,
2012-09-13 11:54:00,66.7,56.2,30.13,SSW,202,0.0,0.0,69,0.00,,,0.00,WUHU21623XXSP,2012-09-13 18:54:00,
2012-09-13 11:59:00,67.3,56.8,30.13,North,0,0.0,0.0,69,0.00,,,0.00,WUHU21623XXSP,2012-09-13 18:59:00,
2012-09-13 12:04:00,67.6,57.1,30.12,NNE,22,0.0,0.0,69,0.00,,,0.00,WUHU21623XXSP,2012-09-13 19:04:00,
2012-09-13 12:09:00,68.2,57.2,30.12,North,0,0.0,0.0,68,0.00,,,0.00,WUHU21623XXSP,2012-09-13 19:09:00,
2012-09-13 12:14:00,68.5,57.5,30.12,West,270,0.0,0.0,68,0.00,,,0.00,WUHU21623XXSP,2012-09-13 19:14:00,
2012-09-13 12:19:00,69.1,58.0,30.12,SW,225,0.0,0.0,68,0.00,,,0.00,WUHU21623XXSP,2012-09-13 19:19:00,
2012-09-13 12:24:00,69.6,57.7,30.12,South,180,0.0,0.0,66,0.00,,,0.00,WUHU21623XXSP,2012-09-13 19:24:00,
2012-09-13 12:29:00,70.0,58.0,30.12,South,180,0.0,0.0,66,0.00,,,0.00,WUHU21623XXSP,2012-09-13 19:29:00,
2012-09-13 12:34:00,70.3,58.0,30.12,SW,225,0.0,0.0,65,0.00,,,0.00,WUHU21623XXSP,2012-09-13 19:34:00,
2012-09-13 12:39:00,70.7,57.5,30.12,South,180,0.0,0.0,63,0.00,,,0.00,WUHU21623XXSP,2012-09-13 19:39:00,
2012-09-13 12:44:00,71.2,57.5,30.11,North,0,0.0,0.0,62,0.00,,,0.00,WUHU21623XXSP,2012-09-13 19:44:00,
2012-09-13 12:49:00,71.2,57.5,30.11,SSE,157,0.0,0.0,62,0.00,,,0.00,WUHU21623XXSP,2012-09-13 19:49:00,
2012-09-13 12:54:00,71.8,57.6,30.11,SSW,202,0.0,0.0,61,0.00,,,0.00,WUHU21623XXSP,2012-09-13 19:54:00,
2012-09-13 12:59:00,72.1,57.0,30.10,SSW,202,0.0,0.0,59,0.00,,,0.00,WUHU21623XXSP,2012-09-13 19:59:00,
2012-09-13 13:04:00,72.5,57.3,30.10,North,0,0.0,0.0,59,0.00,,,0.00,WUHU21623XXSP,2012-09-13 20:04:00,
2012-09-13 13:09:00,72.9,56.1,30.10,SSE,157,0.0,0.0,56,0.00,,,0.00,WUHU21623XXSP,2012-09-13 20:09:00,
2012-09-13 13:14:00,73.2,57.5,30.10,NNW,337,0.0,0.0,58,0.00,,,0.00,WUHU21623XXSP,2012-09-13 20:14:00,
2012-09-13 13:19:00,73.4,56.6,30.09,SW,225,0.0,0.0,56,0.00,,,0.00,WUHU21623XXSP,2012-09-13 20:19:00,
2012-09-13 13:24:00,73.6,56.8,30.09,West,270,0.0,0.0,56,0.00,,,0.00,WUHU21623XXSP,2012-09-13 20:24:00,
2012-09-13 13:29:00,73.8,56.0,30.09,SSW,202,0.0,0.0,54,0.00,,,0.00,WUHU21623XXSP,2012-09-13 20:29:00,
2012-09-13 13:34:00,73.9,56.2,30.09,NNW,337,0.0,0.0,54,0.00,,,0.00,WUHU21623XXSP,2012-09-13 20:34:00,
2012-09-13 13:39:00,74.3,55.5,30.08,NNE,22,0.0,0.0,52,0.00,,,0.00,WUHU21623XXSP,2012-09-13 20:39:00,
2012-09-13 13:44:00,74.5,55.2,30.09,NNE,22,0.0,0.0,51,0.00,,,0.00,WUHU21623XXSP,2012-09-13 20:44:00,
2012-09-13 13:49:00,74.8,55.0,30.08,North,0,0.0,0.0,50,0.00,,,0.00,WUHU21623XXSP,2012-09-13 20:49:00,
2012-09-13 13:54:00,74.8,55.0,30.08,WNW,292,0.0,0.0,50,0.00,,,0.00,WUHU21623XXSP,2012-09-13 20:54:00,
2012-09-13 13:59:00,75.0,55.2,30.08,WNW,292,0.0,0.0,50,0.00,,,0.00,WUHU21623XXSP,2012-09-13 20:59:00,
2012-09-13 14:04:00,75.0,55.2,30.08,WNW,292,0.0,0.0,50,0.00,,,0.00,WUHU21623XXSP,2012-09-13 21:04:00,
2012-09-13 14:09:00,75.0,55.2,30.08,WNW,292,0.0,0.0,49,0.00,,,0.00,WUHU21623XXSP,2012-09-13 21:09:00,
2012-09-13 14:14:00,75.6,55.1,30.07,NW,315,0.0,0.0,49,0.00,,,0.00,WUHU21623XXSP,2012-09-13 21:14:00,
2012-09-13 14:19:00,75.7,55.3,30.07,North,0,0.0,0.0,48,0.00,,,0.00,WUHU21623XXSP,2012-09-13 21:19:00,
2012-09-13 14:24:00,75.9,54.8,30.07,North,0,0.0,0.0,48,0.00,,,0.00,WUHU21623XXSP,2012-09-13 21:24:00,
2012-09-13 14:29:00,75.9,54.8,30.07,SSE,157,0.0,0.0,48,0.00,,,0.00,WUHU21623XXSP,2012-09-13 21:29:00,
2012-09-13 14:34:00,76.1,53.8,30.06,SW,225,0.0,0.0,46,0.00,,,0.00,WUHU21623XXSP,2012-09-13 21:34:00,
2012-09-13 14:39:00,76.1,53.2,30.06,SW,225,0.0,0.0,45,0.00,,,0.00,WUHU21623XXSP,2012-09-13 21:39:00,
2012-09-13 14:44:00,76.3,53.3,30.06,SE,135,0.0,0.0,45,0.00,,,0.00,WUHU21623XXSP,2012-09-13 21:44:00,
2012-09-13 14:49:00,76.5,54.1,30.06,NW,315,0.0,0.0,45,0.00,,,0.00,WUHU21623XXSP,2012-09-13 21:49:00,
2012-09-13 14:54:00,76.6,53.6,30.06,WSW,247,0.0,0.0,45,0.00,,,0.00,WUHU21623XXSP,2012-09-13 21:54:00,
2012-09-13 14:59:00,76.8,53.2,30.06,WSW,247,0.0,0.0,44,0.00,,,0.00,WUHU21623XXSP,2012-09-13 21:59:00,
2012-09-13 15:04:00,76.8,52.6,30.05,NW,315,0.0,0.0,43,0.00,,,0.00,WUHU21623XXSP,2012-09-13 22:04:00,
2012-09-13 15:09:00,76.8,52.6,30.05,SW,225,0.0,0.0,43,0.00,,,0.00,WUHU21623XXSP,2012-09-13 22:09:00,
2012-09-13 15:14:00,76.8,52.6,30.05,NNE,22,0.0,0.0,43,0.00,,,0.00,WUHU21623XXSP,2012-09-13 22:14:00,
2012-09-13 15:19:00,77.2,52.9,30.05,NNE,22,0.0,0.0,43,0.00,,,0.00,WUHU21623XXSP,2012-09-13 22:19:00,
2012-09-13 15:24:00,77.4,53.7,30.05,West,270,0.0,0.0,44,0.00,,,0.00,WUHU21623XXSP,2012-09-13 22:24:00,
2012-09-13 15:29:00,77.4,53.7,30.04,WNW,292,0.0,0.0,44,0.00,,,0.00,WUHU21623XXSP,2012-09-13 22:29:00,
2012-09-13 15:34:00,77.5,53.8,30.04,NNW,337,0.0,0.0,44,0.00,,,0.00,WUHU21623XXSP,2012-09-13 22:34:00,
2012-09-13 15:39:00,77.5,53.8,30.04,NNW,337,0.0,0.0,44,0.00,,,0.00,WUHU21623XXSP,2012-09-13 22:39:00,
2012-09-13 15:44:00,77.5,53.8,30.04,NNW,337,0.0,0.0,44,0.00,,,0.00,WUHU21623XXSP,2012-09-13 22:44:00,
2012-09-13 15:49:00,77.7,54.6,30.04,NNW,337,0.0,0.0,45,0.00,,,0.00,WUHU21623XXSP,2012-09-13 22:49:00,
2012-09-13 15:54:00,77.7,54.0,30.03,NNW,337,0.0,0.0,44,0.00,,,0.00,WUHU21623XXSP,2012-09-13 22:54:00,
2012-09-13 15:59:00,77.7,54.0,30.03,NW,315,0.0,0.0,44,0.00,,,0.00,WUHU21623XXSP,2012-09-13 22:59:00,
2012-09-13 16:04:00,77.5,53.8,30.03,NNW,337,0.0,0.0,44,0.00,,,0.00,WUHU21623XXSP,2012-09-13 23:04:00,
2012-09-13 16:09:00,77.5,53.8,30.03,NNW,337,0.0,0.0,44,0.00,,,0.00,WUHU21623XXSP,2012-09-13 23:09:00,
2012-09-13 16:14:00,77.5,53.8,30.03,NNW,337,0.0,0.0,44,0.00,,,0.00,WUHU21623XXSP,2012-09-13 23:14:00,
2012-09-13 16:19:00,77.5,53.8,30.03,NNW,337,0.0,0.0,44,0.00,,,0.00,WUHU21623XXSP,2012-09-13 23:19:00,
2012-09-13 16:24:00,77.4,53.7,30.03,ESE,112,0.0,0.0,44,0.00,,,0.00,WUHU21623XXSP,2012-09-13 23:24:00,
2012-09-13 16:29:00,77.4,54.9,30.03,WSW,247,0.0,0.0,46,0.00,,,0.00,WUHU21623XXSP,2012-09-13 23:29:00,
2012-09-13 16:34:00,77.5,55.1,30.03,WSW,247,0.0,0.0,46,0.00,,,0.00,WUHU21623XXSP,2012-09-13 23:34:00,
2012-09-13 16:39:00,77.4,54.9,30.02,WSW,247,0.0,0.0,46,0.00,,,0.00,WUHU21623XXSP,2012-09-13 23:39:00,
2012-09-13 16:44:00,77.2,54.7,30.02,West,270,0.0,0.0,46,0.00,,,0.00,WUHU21623XXSP,2012-09-13 23:44:00,
2012-09-13 16:49:00,77.0,54.6,30.02,WNW,292,0.0,0.0,46,0.00,,,0.00,WUHU21623XXSP,2012-09-13 23:49:00,
2012-09-13 16:54:00,76.8,55.0,30.02,WNW,292,0.0,0.0,47,0.00,,,0.00,WUHU21623XXSP,2012-09-13 23:54:00,
2012-09-13 16:59:00,76.8,55.0,30.02,WNW,292,0.0,0.0,47,0.00,,,0.00,WUHU21623XXSP,2012-09-13 23:59:00,
2012-09-13 17:04:00,76.8,55.6,30.02,WNW,292,0.0,0.0,48,0.00,,,0.00,WUHU21623XXSP,2012-09-14 00:04:00,
2012-09-13 17:09:00,76.6,55.5,30.02,SW,225,0.0,0.0,48,0.00,,,0.00,WUHU21623XXSP,2012-09-14 00:09:00,
2012-09-13 17:14:00,76.6,56.1,30.02,SW,225,0.0,0.0,49,0.00,,,0.00,WUHU21623XXSP,2012-09-14 00:14:00,
2012-09-13 17:19:00,76.1,56.4,30.01,WSW,247,0.0,0.0,50,0.00,,,0.00,WUHU21623XXSP,2012-09-14 00:19:00,
2012-09-13 17:24:00,75.7,56.4,30.01,WSW,247,0.0,0.0,51,0.00,,,0.00,WUHU21623XXSP,2012-09-14 00:24:00,
2012-09-13 17:29:00,75.7,55.9,30.01,WSW,247,0.0,0.0,50,0.00,,,0.00,WUHU21623XXSP,2012-09-14 00:29:00,
2012-09-13 17:34:00,75.4,56.1,30.01,SW,225,0.0,0.0,51,0.00,,,0.00,WUHU21623XXSP,2012-09-14 00:34:00,
2012-09-13 17:39:00,75.4,56.1,30.01,SW,225,0.0,0.0,51,0.00,,,0.00,WUHU21623XXSP,2012-09-14 00:39:00,
2012-09-13 17:44:00,75.0,56.2,30.01,SW,225,0.0,0.0,52,0.00,,,0.00,WUHU21623XXSP,2012-09-14 00:44:00,
2012-09-13 17:49:00,74.8,57.1,30.01,SW,225,0.0,0.0,54,0.00,,,0.00,WUHU21623XXSP,2012-09-14 00:49:00,
2012-09-13 17:54:00,74.8,57.6,30.01,SW,225,0.0,0.0,55,0.00,,,0.00,WUHU21623XXSP,2012-09-14 00:54:00,
2012-09-13 17:59:00,74.3,57.0,30.01,SW,225,0.0,0.0,55,0.00,,,0.00,WUHU21623XXSP,2012-09-14 00:59:00,
2012-09-13 18:04:00,73.9,56.7,30.01,SW,225,0.0,0.0,55,0.00,,,0.00,WUHU21623XXSP,2012-09-14 01:04:00,
2012-09-13 18:09:00,73.8,57.0,30.01,SW,225,0.0,0.0,56,0.00,,,0.00,WUHU21623XXSP,2012-09-14 01:09:00,
2012-09-13 18:14:00,73.6,56.8,30.01,SW,225,0.0,0.0,56,0.00,,,0.00,WUHU21623XXSP,2012-09-14 01:14:00,
2012-09-13 18:19:00,73.4,57.1,30.01,SW,225,0.0,0.0,57,0.00,,,0.00,WUHU21623XXSP,2012-09-14 01:19:00,
2012-09-13 18:24:00,73.0,56.8,30.01,SW,225,0.0,0.0,57,0.00,,,0.00,WUHU21623XXSP,2012-09-14 01:24:00,
2012-09-13 18:29:00,72.3,56.0,30.01,SW,225,0.0,0.0,56,0.00,,,0.00,WUHU21623XXSP,2012-09-14 01:29:00,
2012-09-13 18:34:00,72.1,56.2,30.01,SW,225,0.0,0.0,57,0.00,,,0.00,WUHU21623XXSP,2012-09-14 01:34:00,
2012-09-13 18:39:00,71.8,55.7,30.01,SW,225,0.0,0.0,57,0.00,,,0.00,WUHU21623XXSP,2012-09-14 01:39:00,
2012-09-13 18:44:00,71.4,55.9,30.01,SW,225,0.0,0.0,58,0.00,,,0.00,WUHU21623XXSP,2012-09-14 01:44:00,
2012-09-13 18:49:00,70.9,55.9,30.01,SW,225,0.0,0.0,59,0.00,,,0.00,WUHU21623XXSP,2012-09-14 01:49:00,
2012-09-13 18:55:00,70.5,55.5,30.01,SW,225,0.0,0.0,59,0.00,,,0.00,WUHU21623XXSP,2012-09-14 01:55:00,
2012-09-13 19:00:00,69.6,55.2,30.01,SW,225,0.0,0.0,60,0.00,,,0.00,WUHU21623XXSP,2012-09-14 02:00:00,
2012-09-13 19:05:00,69.3,55.3,30.01,SW,225,0.0,0.0,61,0.00,,,0.00,WUHU21623XXSP,2012-09-14 02:05:00,
2012-09-13 19:10:00,68.7,54.7,30.01,SW,225,0.0,0.0,61,0.00,,,0.00,WUHU21623XXSP,2012-09-14 02:10:00,
2012-09-13 19:15:00,68.2,55.0,30.01,SW,225,0.0,0.0,63,0.00,,,0.00,WUHU21623XXSP,2012-09-14 02:15:00,
2012-09-13 19:20:00,67.8,55.1,30.01,SW,225,0.0,0.0,63,0.00,,,0.00,WUHU21623XXSP,2012-09-14 02:20:00,
2012-09-13 19:25:00,67.3,54.6,30.01,SW,225,0.0,0.0,64,0.00,,,0.00,WUHU21623XXSP,2012-09-14 02:25:00,
2012-09-13 19:30:00,66.7,54.6,30.01,SW,225,0.0,0.0,65,0.00,,,0.00,WUHU21623XXSP,2012-09-14 02:30:00,
2012-09-13 19:34:00,66.6,54.8,30.01,SW,225,0.0,0.0,66,0.00,,,0.00,WUHU21623XXSP,2012-09-14 02:34:00,
2012-09-13 19:40:00,66.0,54.7,30.01,SW,225,0.0,0.0,67,0.00,,,0.00,WUHU21623XXSP,2012-09-14 02:40:00,
2012-09-13 19:45:00,65.8,54.5,30.02,SW,225,0.0,0.0,67,0.00,,,0.00,WUHU21623XXSP,2012-09-14 02:45:00,
2012-09-13 19:49:00,65.3,54.0,30.02,SW,225,0.0,0.0,67,0.00,,,0.00,WUHU21623XXSP,2012-09-14 02:49:00,
2012-09-13 19:54:00,64.8,54.4,30.02,SW,225,0.0,0.0,69,0.00,,,0.00,WUHU21623XXSP,2012-09-14 02:54:00,
2012-09-13 19:59:00,64.4,54.1,30.02,SW,225,0.0,0.0,69,0.00,,,0.00,WUHU21623XXSP,2012-09-14 02:59:00,
2012-09-13 20:04:00,64.0,53.7,30.02,SW,225,0.0,0.0,69,0.00,,,0.00,WUHU21623XXSP,2012-09-14 03:04:00,
2012-09-13 20:09:00,63.7,53.8,30.02,SW,225,0.0,0.0,70,0.00,,,0.00,WUHU21623XXSP,2012-09-14 03:09:00,
2012-09-13 20:15:00,63.3,53.8,30.02,SW,225,0.0,0.0,71,0.00,,,0.00,WUHU21623XXSP,2012-09-14 03:15:00,
2012-09-13 20:20:00,63.0,54.0,30.02,SW,225,0.0,0.0,72,0.00,,,0.00,WUHU21623XXSP,2012-09-14 03:20:00,
2012-09-13 20:25:00,62.6,53.4,30.03,SW,225,0.0,0.0,72,0.00,,,0.00,WUHU21623XXSP,2012-09-14 03:25:00,
2012-09-13 20:30:00,62.4,53.6,30.03,SW,225,0.0,0.0,73,0.00,,,0.00,WUHU21623XXSP,2012-09-14 03:30:00,
2012-09-13 20:35:00,62.2,53.8,30.03,SW,225,0.0,0.0,74,0.00,,,0.00,WUHU21623XXSP,2012-09-14 03:35:00,
2012-09-13 20:40:00,61.9,53.5,30.03,SW,225,0.0,0.0,74,0.00,,,0.00,WUHU21623XXSP,2012-09-14 03:40:00,
2012-09-13 20:45:00,61.5,53.3,30.03,SW,225,0.0,0.0,75,0.00,,,0.00,WUHU21623XXSP,2012-09-14 03:45:00,
2012-09-13 20:50:00,61.3,53.4,30.03,SW,225,0.0,0.0,75,0.00,,,0.00,WUHU21623XXSP,2012-09-14 03:50:00,
2012-09-13 20:55:00,61.0,53.0,30.03,SW,225,0.0,0.0,75,0.00,,,0.00,WUHU21623XXSP,2012-09-14 03:55:00,
2012-09-13 21:00:00,61.0,53.0,30.03,SW,225,0.0,0.0,75,0.00,,,0.00,WUHU21623XXSP,2012-09-14 04:00:00,
2012-09-13 21:02:00,61.0,53.0,30.03,SW,225,0.0,0.0,75,0.00,,,0.00,WUHU21623XXSP,2012-09-14 04:02:00,
2012-09-13 21:03:00,60.8,52.9,30.03,SW,225,0.0,0.0,75,0.00,,,0.00,WUHU21623XXSP,2012-09-14 04:03:00,
2012-09-13 21:08:00,60.6,53.1,30.03,SW,225,0.0,0.0,76,0.00,,,0.00,WUHU21623XXSP,2012-09-14 04:08:00,
2012-09-13 21:13:00,60.4,52.9,30.03,SW,225,0.0,0.0,76,0.00,,,0.00,WUHU21623XXSP,2012-09-14 04:13:00,
2012-09-13 21:18:00,60.3,52.7,30.03,SW,225,0.0,0.0,76,0.00,,,0.00,WUHU21623XXSP,2012-09-14 04:18:00,
2012-09-13 21:23:00,60.1,52.5,30.03,SW,225,0.0,0.0,76,0.00,,,0.00,WUHU21623XXSP,2012-09-14 04:23:00,
2012-09-13 21:28:00,59.9,52.3,30.03,SW,225,0.0,0.0,76,0.00,,,0.00,WUHU21623XXSP,2012-09-14 04:28:00,
2012-09-13 21:33:00,59.7,52.2,30.03,SW,225,0.0,0.0,76,0.00,,,0.00,WUHU21623XXSP,2012-09-14 04:33:00,
2012-09-13 21:38:00,59.5,52.3,30.03,SW,225,0.0,0.0,77,0.00,,,0.00,WUHU21623XXSP,2012-09-14 04:38:00,
2012-09-13 21:43:00,59.4,52.2,30.03,SW,225,0.0,0.0,77,0.00,,,0.00,WUHU21623XXSP,2012-09-14 04:43:00,
2012-09-13 21:48:00,59.2,52.0,30.03,SW,225,0.0,0.0,77,0.00,,,0.00,WUHU21623XXSP,2012-09-14 04:48:00,
2012-09-13 21:53:00,59.2,52.0,30.03,SW,225,0.0,0.0,77,0.00,,,0.00,WUHU21623XXSP,2012-09-14 04:53:00,
2012-09-13 21:58:00,59.0,51.8,30.04,SW,225,0.0,0.0,77,0.00,,,0.00,WUHU21623XXSP,2012-09-14 04:58:00,
2012-09-13 22:03:00,59.0,52.2,30.04,SW,225,0.0,0.0,78,0.00,,,0.00,WUHU21623XXSP,2012-09-14 05:03:00,
2012-09-13 22:08:00,58.8,52.0,30.04,SW,225,0.0,0.0,78,0.00,,,0.00,WUHU21623XXSP,2012-09-14 05:08:00,
2012-09-13 22:13:00,58.6,52.2,30.04,SW,225,0.0,0.0,79,0.00,,,0.00,WUHU21623XXSP,2012-09-14 05:13:00,
2012-09-13 22:18:00,58.6,52.2,30.04,SW,225,0.0,0.0,79,0.00,,,0.00,WUHU21623XXSP,2012-09-14 05:18:00,
2012-09-13 22:23:00,58.3,51.8,30.04,SW,225,0.0,0.0,79,0.00,,,0.00,WUHU21623XXSP,2012-09-14 05:23:00,
2012-09-13 22:28:00,58.1,51.6,30.04,SW,225,0.0,0.0,79,0.00,,,0.00,WUHU21623XXSP,2012-09-14 05:28:00,
2012-09-13 22:33:00,57.9,51.4,30.04,SW,225,0.0,0.0,79,0.00,,,0.00,WUHU21623XXSP,2012-09-14 05:33:00,
2012-09-13 22:38:00,57.7,51.3,30.04,SW,225,0.0,0.0,79,0.00,,,0.00,WUHU21623XXSP,2012-09-14 05:38:00,
2012-09-13 22:43:00,57.7,51.6,30.04,SW,225,0.0,0.0,80,0.00,,,0.00,WUHU21623XXSP,2012-09-14 05:43:00,
2012-09-13 22:48:00,57.6,51.4,30.04,SW,225,0.0,0.0,80,0.00,,,0.00,WUHU21623XXSP,2012-09-14 05:48:00,
2012-09-13 22:53:00,57.4,51.3,30.04,SW,225,0.0,0.0,80,0.00,,,0.00,WUHU21623XXSP,2012-09-14 05:53:00,
2012-09-13 22:58:00,57.4,51.3,30.04,SW,225,0.0,0.0,80,0.00,,,0.00,WUHU21623XXSP,2012-09-14 05:58:00,
2012-09-13 23:03:00,57.0,50.9,30.04,SW,225,0.0,0.0,80,0.00,,,0.00,WUHU21623XXSP,2012-09-14 06:03:00,
2012-09-13 23:08:00,57.0,50.9,30.04,SW,225,0.0,0.0,80,0.00,,,0.00,WUHU21623XXSP,2012-09-14 06:08:00,
2012-09-13 23:13:00,56.8,50.7,30.04,SW,225,0.0,0.0,80,0.00,,,0.00,WUHU21623XXSP,2012-09-14 06:13:00,
2012-09-13 23:18:00,56.8,50.7,30.04,SW,225,0.0,0.0,80,0.00,,,0.00,WUHU21623XXSP,2012-09-14 06:18:00,
2012-09-13 23:23:00,56.5,50.7,30.04,SW,225,0.0,0.0,81,0.00,,,0.00,WUHU21623XXSP,2012-09-14 06:23:00,
2012-09-13 23:28:00,56.3,50.5,30.04,SW,225,0.0,0.0,81,0.00,,,0.00,WUHU21623XXSP,2012-09-14 06:28:00,
2012-09-13 23:33:00,56.1,50.3,30.04,SW,225,0.0,0.0,81,0.00,,,0.00,WUHU21623XXSP,2012-09-14 06:33:00,
2012-09-13 23:38:00,55.9,50.1,30.04,SW,225,0.0,0.0,81,0.00,,,0.00,WUHU21623XXSP,2012-09-14 06:38:00,
2012-09-13 23:43:00,55.9,50.5,30.04,SW,225,0.0,0.0,82,0.00,,,0.00,WUHU21623XXSP,2012-09-14 06:43:00,
2012-09-13 23:48:00,55.8,50.0,30.04,SW,225,0.0,0.0,81,0.00,,,0.00,WUHU21623XXSP,2012-09-14 06:48:00,
2012-09-13 23:53:00,55.6,50.1,30.04,SW,225,0.0,0.0,82,0.00,,,0.00,WUHU21623XXSP,2012-09-14 06:53:00,
2012-09-13 23:58:00,55.6,50.1,30.04,SW,225,0.0,0.0,82,0.00,,,0.00,WUHU21623XXSP,2012-09-14 06:58:00,